FCYJMS GMMZ-GMAD

Flight info

Callsign FCYJMS
Flight time N/A
Altitude 9000
Route 3060N00709W 3108N00720W 3110N00728W 3112N00726W 3117N00723W 3119N00723W 3127N00725W 3135N00744W DCT GMMX DCT 3119N00756W 3111N00805W 3100N00809W 3059N00812W 3055N00820W 3030N00849W DCT 3026N00852W DCT FF27
Aircraft AS50/L-G/C

Departure

Time 2026-05-04 18:44
Airport Ouarzazate International Airport (GMMZ)

Arrival

Time N/A
Airport Al Massira Airport (GMAD)
Time Latitude Longitude Altitude Speed Heading
2026-05-04 18:21 30.93528 -6.90704 3721 ft 0 kts 77°
2026-05-04 18:42 30.93522 -6.90700 3712 ft 2 kts 45°
2026-05-04 18:42 30.93514 -6.90696 3712 ft 1 kts 11°
2026-05-04 18:42 30.93513 -6.90697 3712 ft 1 kts 358°
2026-05-04 18:43 30.93526 -6.90703 3714 ft 6 kts 351°
2026-05-04 18:43 30.93615 -6.90731 3820 ft 19 kts 342°
2026-05-04 18:43 30.93769 -6.90804 4040 ft 31 kts 331°
2026-05-04 18:43 30.94008 -6.90969 4172 ft 47 kts 321°
2026-05-04 18:44 30.94290 -6.91227 4275 ft 55 kts 312°
2026-05-04 18:44 30.94388 -6.91328 4301 ft 56 kts 311°
2026-05-04 18:44 30.94878 -6.91861 4424 ft 61 kts 307°
2026-05-04 18:44 30.95025 -6.92329 4495 ft 63 kts 281°
2026-05-04 18:45 30.95059 -6.92869 4603 ft 77 kts 275°
2026-05-04 18:45 30.95094 -6.93542 4779 ft 87 kts 276°
2026-05-04 18:45 30.95120 -6.94009 4959 ft 88 kts 274°
2026-05-04 18:45 30.95246 -6.95269 4531 ft 136 kts 278°
2026-05-04 18:46 30.95330 -6.95992 4532 ft 135 kts 278°
2026-05-04 18:46 30.95449 -6.97029 4576 ft 123 kts 278°
2026-05-04 18:46 30.95536 -6.97972 4706 ft 116 kts 277°
2026-05-04 18:46 30.95657 -6.98905 4691 ft 118 kts 282°
2026-05-04 18:47 30.95857 -6.99850 4772 ft 123 kts 285°
2026-05-04 18:47 30.96087 -7.00801 4916 ft 120 kts 285°
2026-05-04 18:47 30.96334 -7.01717 5087 ft 117 kts 285°
2026-05-04 18:47 30.96595 -7.02671 5092 ft 129 kts 285°
2026-05-04 18:48 30.96874 -7.03667 5222 ft 128 kts 287°
2026-05-04 18:48 30.97138 -7.04634 5343 ft 125 kts 287°
2026-05-04 18:48 30.97395 -7.05618 5448 ft 128 kts 287°
2026-05-04 18:48 30.97648 -7.06619 5605 ft 129 kts 286°
2026-05-04 18:49 30.97898 -7.07631 5777 ft 128 kts 288°
2026-05-04 18:49 30.98107 -7.08605 5953 ft 122 kts 287°
2026-05-04 18:49 30.98296 -7.09586 6076 ft 126 kts 285°
2026-05-04 18:49 30.98495 -7.10583 6220 ft 127 kts 285°
2026-05-04 18:50 30.98706 -7.11584 6345 ft 128 kts 287°
2026-05-04 18:50 30.98922 -7.12589 6456 ft 131 kts 287°
2026-05-04 18:50 30.99141 -7.13622 6569 ft 132 kts 286°
2026-05-04 18:50 30.99438 -7.14618 6768 ft 127 kts 294°
2026-05-04 18:51 30.99807 -7.15547 6949 ft 127 kts 298°
2026-05-04 18:51 31.00273 -7.16415 7131 ft 126 kts 304°
2026-05-04 18:51 31.00816 -7.17245 7298 ft 131 kts 308°
2026-05-04 18:51 31.01402 -7.18038 7518 ft 128 kts 310°
2026-05-04 18:52 31.01997 -7.18808 7701 ft 126 kts 310°
2026-05-04 18:52 31.02588 -7.19558 7849 ft 125 kts 310°
2026-05-04 18:52 31.03182 -7.20313 7907 ft 130 kts 310°
2026-05-04 18:52 31.03797 -7.21106 7992 ft 134 kts 309°
2026-05-04 18:53 31.04415 -7.21909 8164 ft 130 kts 310°
2026-05-04 18:53 31.05025 -7.22717 8242 ft 136 kts 309°
2026-05-04 18:53 31.05655 -7.23575 8272 ft 141 kts 309°
2026-05-04 18:53 31.06290 -7.24447 8363 ft 140 kts 308°
2026-05-04 18:54 31.06917 -7.25298 8484 ft 138 kts 308°
2026-05-04 18:54 31.07546 -7.26149 8565 ft 137 kts 308°
2026-05-04 18:54 31.08168 -7.26979 8713 ft 136 kts 308°
2026-05-04 18:54 31.08803 -7.27830 8829 ft 141 kts 309°
2026-05-04 18:55 31.09434 -7.28671 9060 ft 136 kts 308°
2026-05-04 18:55 31.10671 -7.30394 9206 ft 143 kts 306°
2026-05-04 18:55 31.11308 -7.31308 9192 ft 147 kts 307°
2026-05-04 18:56 31.11955 -7.32245 9193 ft 150 kts 306°
2026-05-04 18:56 31.12559 -7.33249 9189 ft 151 kts 298°
2026-05-04 18:56 31.13014 -7.34347 9188 ft 150 kts 291°
2026-05-04 18:56 31.13379 -7.35490 9185 ft 151 kts 288°
2026-05-04 18:57 31.13708 -7.36648 9187 ft 151 kts 287°
2026-05-04 18:57 31.14030 -7.37812 9187 ft 150 kts 287°
2026-05-04 18:57 31.14361 -7.38967 9185 ft 151 kts 287°
2026-05-04 18:57 31.14699 -7.40116 9184 ft 152 kts 288°
2026-05-04 18:58 31.15046 -7.41282 9186 ft 152 kts 288°
2026-05-04 18:58 31.15405 -7.42449 9186 ft 154 kts 288°
2026-05-04 18:58 31.15780 -7.43627 9185 ft 156 kts 289°
2026-05-04 18:58 31.16167 -7.44809 9204 ft 156 kts 294°
2026-05-04 18:59 31.16895 -7.45722 9204 ft 156 kts 326°
2026-05-04 18:59 31.17941 -7.46057 9207 ft 160 kts 354°
2026-05-04 18:59 31.19020 -7.45707 9206 ft 165 kts 22°
2026-05-04 18:59 31.19940 -7.44890 9216 ft 167 kts 37°
2026-05-04 19:00 31.20775 -7.43931 9204 ft 169 kts 41°
2026-05-04 19:00 31.21606 -7.42975 9206 ft 167 kts 35°
2026-05-04 19:00 31.22538 -7.42181 9208 ft 167 kts 26°
2026-05-04 19:00 31.23540 -7.41506 9208 ft 166 kts 22°
2026-05-04 19:01 31.24581 -7.40931 9206 ft 165 kts 19°
2026-05-04 19:01 31.25638 -7.40398 9205 ft 166 kts 19°
2026-05-04 19:01 31.26676 -7.39777 9204 ft 169 kts 22°
2026-05-04 19:01 31.27681 -7.39086 9204 ft 167 kts 25°
2026-05-04 19:02 31.28665 -7.38377 9200 ft 164 kts 26°
2026-05-04 19:02 31.29677 -7.37815 9204 ft 159 kts 13°
2026-05-04 19:02 31.30719 -7.37609 9204 ft 147 kts 357°
2026-05-04 19:02 31.31750 -7.37612 9210 ft 151 kts 352°
2026-05-04 19:03 31.32793 -7.37834 9216 ft 154 kts 340°
2026-05-04 19:03 31.33813 -7.38260 9217 ft 157 kts 335°
2026-05-04 19:03 31.34858 -7.38680 9216 ft 160 kts 339°
2026-05-04 19:03 31.35941 -7.39026 9216 ft 162 kts 343°
2026-05-04 19:04 31.37043 -7.39313 9219 ft 162 kts 344°
2026-05-04 19:04 31.38151 -7.39560 9219 ft 162 kts 346°
2026-05-04 19:04 31.39265 -7.39792 9220 ft 163 kts 346°
2026-05-04 19:04 31.40377 -7.40015 9226 ft 161 kts 347°
2026-05-04 19:05 31.41486 -7.40229 9088 ft 164 kts 348°
2026-05-04 19:05 31.42606 -7.40429 9018 ft 160 kts 348°
2026-05-04 19:05 31.43691 -7.40620 9017 ft 156 kts 347°
2026-05-04 19:05 31.44746 -7.40820 9006 ft 151 kts 342°
2026-05-04 19:06 31.45600 -7.41469 8986 ft 146 kts 311°
2026-05-04 19:06 31.46125 -7.42457 8902 ft 145 kts 291°
2026-05-04 19:06 31.46394 -7.43614 8699 ft 148 kts 282°
2026-05-04 19:06 31.46664 -7.44752 8645 ft 143 kts 291°
2026-05-04 19:07 31.47097 -7.45782 8647 ft 139 kts 299°
2026-05-04 19:07 31.47610 -7.46718 8645 ft 135 kts 303°
2026-05-04 19:07 31.48131 -7.47618 8667 ft 131 kts 303°
2026-05-04 19:07 31.48639 -7.48493 8678 ft 128 kts 303°
2026-05-04 19:08 31.49106 -7.49368 8709 ft 126 kts 297°
2026-05-04 19:08 31.49437 -7.50312 8747 ft 125 kts 289°
2026-05-04 19:08 31.49714 -7.51335 8585 ft 137 kts 287°
2026-05-04 19:08 31.49993 -7.52411 8351 ft 141 kts 287°
2026-05-04 19:09 31.50341 -7.53470 8233 ft 137 kts 295°
2026-05-04 19:09 31.50756 -7.54476 7998 ft 135 kts 298°
2026-05-04 19:09 31.51183 -7.55443 7730 ft 134 kts 299°
2026-05-04 19:09 31.51605 -7.56399 7466 ft 131 kts 299°
2026-05-04 19:10 31.52013 -7.57354 7170 ft 131 kts 298°
2026-05-04 19:10 31.52418 -7.58318 6887 ft 132 kts 298°
2026-05-04 19:10 31.52815 -7.59296 6582 ft 133 kts 298°
2026-05-04 19:10 31.53202 -7.60285 6299 ft 134 kts 297°
2026-05-04 19:11 31.53591 -7.61288 5970 ft 136 kts 298°
2026-05-04 19:11 31.53973 -7.62302 5703 ft 135 kts 298°
2026-05-04 19:11 31.54338 -7.63317 5378 ft 135 kts 298°
2026-05-04 19:11 31.54761 -7.64288 5027 ft 133 kts 305°
2026-05-04 19:12 31.55246 -7.65211 4685 ft 133 kts 307°
2026-05-04 19:12 31.56276 -7.67011 4008 ft 134 kts 308°
2026-05-04 19:12 31.56811 -7.67910 3712 ft 135 kts 307°
2026-05-04 19:13 31.57303 -7.68831 3429 ft 134 kts 297°
2026-05-04 19:13 31.57519 -7.69898 3152 ft 135 kts 284°
2026-05-04 19:13 31.57581 -7.70958 3084 ft 121 kts 279°
2026-05-04 19:13 31.57640 -7.71870 3142 ft 110 kts 281°
2026-05-04 19:14 31.57735 -7.72819 3320 ft 125 kts 280°
2026-05-04 19:14 31.57863 -7.73938 3308 ft 152 kts 282°
2026-05-04 19:14 31.58055 -7.75222 3181 ft 165 kts 284°
2026-05-04 19:14 31.58291 -7.76553 3130 ft 168 kts 285°
2026-05-04 19:15 31.58559 -7.77905 3108 ft 172 kts 287°
2026-05-04 19:15 31.58837 -7.79270 3096 ft 172 kts 287°
2026-05-04 19:15 31.59115 -7.80625 3091 ft 169 kts 287°
2026-05-04 19:15 31.59398 -7.81971 3092 ft 172 kts 285°
2026-05-04 19:16 31.59572 -7.83380 3088 ft 177 kts 277°
2026-05-04 19:16 31.59568 -7.84842 3085 ft 182 kts 270°
2026-05-04 19:16 31.59482 -7.86325 3081 ft 182 kts 268°
2026-05-04 19:16 31.59412 -7.87805 3079 ft 181 kts 271°
2026-05-04 19:17 31.59456 -7.89277 3079 ft 179 kts 277°
2026-05-04 19:17 31.59575 -7.90724 3078 ft 179 kts 279°
2026-05-04 19:17 31.59734 -7.92189 3077 ft 182 kts 280°
2026-05-04 19:17 31.59916 -7.93636 2896 ft 173 kts 283°
2026-05-04 19:18 31.60126 -7.94883 2981 ft 140 kts 285°
2026-05-04 19:18 31.60305 -7.95933 2988 ft 121 kts 288°
2026-05-04 19:18 31.60464 -7.96897 2608 ft 122 kts 290°
2026-05-04 19:18 31.60652 -7.97832 2357 ft 113 kts 288°
2026-05-04 19:19 31.60783 -7.98705 2142 ft 105 kts 284°
2026-05-04 19:19 31.60840 -7.99517 2001 ft 92 kts 277°
2026-05-04 19:19 31.60790 -8.00149 2043 ft 64 kts 266°
2026-05-04 19:19 31.60690 -8.00578 2073 ft 47 kts 268°
2026-05-04 19:20 31.60621 -8.00904 2028 ft 33 kts 275°
2026-05-04 19:20 31.60607 -8.01153 1866 ft 29 kts 278°
2026-05-04 19:20 31.60610 -8.01391 1797 ft 30 kts 265°
2026-05-04 19:20 31.60588 -8.01657 1780 ft 36 kts 256°
2026-05-04 19:21 31.60514 -8.01965 1772 ft 43 kts 247°
2026-05-04 19:21 31.60445 -8.02326 1771 ft 49 kts 258°
2026-05-04 19:21 31.60454 -8.02747 1773 ft 54 kts 270°
2026-05-04 19:21 31.60476 -8.03191 1793 ft 56 kts 268°
2026-05-04 19:22 31.60456 -8.03677 1675 ft 63 kts 266°
2026-05-04 19:22 31.60433 -8.04155 1524 ft 49 kts 275°
2026-05-04 19:22 31.60451 -8.04350 1510 ft 0 kts 264°
2026-05-04 19:23 31.60453 -8.04352 1511 ft 3 kts 225°
2026-05-04 19:23 31.60426 -8.04391 1643 ft 8 kts 220°
2026-05-04 19:23 31.60364 -8.04431 1763 ft 12 kts 212°
2026-05-04 19:23 31.60271 -8.04479 1876 ft 18 kts 209°
2026-05-04 19:24 31.60097 -8.04582 2016 ft 40 kts 213°
2026-05-04 19:24 31.59742 -8.04691 2107 ft 67 kts 186°
2026-05-04 19:24 31.59218 -8.04664 2159 ft 83 kts 180°
2026-05-04 19:24 31.58559 -8.04666 2211 ft 107 kts 168°
2026-05-04 19:25 31.57766 -8.04472 2252 ft 127 kts 162°
2026-05-04 19:25 31.56879 -8.04100 2326 ft 139 kts 157°
2026-05-04 19:25 31.56025 -8.03706 2710 ft 133 kts 153°
2026-05-04 19:25 31.55134 -8.03327 2942 ft 137 kts 154°
2026-05-04 19:26 31.54240 -8.02978 3213 ft 135 kts 159°
2026-05-04 19:26 31.53356 -8.02603 3503 ft 133 kts 158°